| time (UTC) | temp F | wind direction | speed MPH | gust MPH | rain 1hr in | rain 24hr in | rain mn in | humidity % | barometer mb |
| 20260509063103 | 55 | 0 | 0.0 | 0.0 | 0.00 | 0.00 | 0.00 | 99 | 1014.2 |
| 20260509061549 | 55 | 0 | 0.0 | 0.0 | 0.00 | 0.00 | 0.00 | 99 | 1014.5 |
| 20260509060056 | 55 | 0 | 0.0 | 0.0 | 0.00 | 0.00 | 0.00 | 98 | 1014.5 |
| 20260509054557 | 54 | 0 | 0.0 | 0.0 | 0.00 | 0.00 | 0.00 | 98 | 1014.7 |
| 20260509053052 | 55 | 0 | 0.0 | 0.0 | 0.00 | 0.00 | 0.00 | 97 | 1014.5 |
| 20260509051553 | 55 | 0 | 0.0 | 0.0 | 0.00 | 0.00 | 0.00 | 97 | 1014.7 |
| 20260509050101 | 55 | 0 | 0.0 | 0.0 | 0.00 | 0.00 | 0.00 | 97 | 1014.6 |
| 20260509044547 | 55 | 0 | 0.0 | 0.0 | 0.00 | 0.00 | 0.00 | 97 | 1014.9 |
| 20260509043050 | 56 | 0 | 0.0 | 0.0 | 0.00 | 0.00 | 0.00 | 97 | 1014.9 |
| 20260509041552 | 56 | 0 | 0.0 | 0.0 | 0.00 | 0.00 | 0.00 | 96 | 1015.1 |
| 20260509040052 | 57 | 0 | 0.0 | 0.0 | 0.00 | 0.00 | 0.00 | 96 | 1015.0 |
| 20260509034554 | 57 | 0 | 0.0 | 0.0 | 0.00 | 0.00 | 0.00 | 96 | 1015.5 |
| 20260509033105 | 57 | 0 | 0.0 | 0.0 | 0.00 | 0.00 | 0.00 | 95 | 1015.5 |
| 20260509031553 | 58 | 0 | 0.0 | 0.0 | 0.00 | 0.00 | 0.00 | 94 | 1015.8 |
| 20260509030052 | 58 | 0 | 0.0 | 1.0 | 0.00 | 0.00 | 0.00 | 94 | 1015.8 |
| 20260509024558 | 59 | 0 | 0.0 | 0.0 | 0.00 | 0.00 | 0.00 | 92 | 1015.9 |
| 20260509023051 | 60 | 0 | 0.0 | 0.0 | 0.00 | 0.00 | 0.00 | 90 | 1016.1 |
| 20260509021555 | 61 | 0 | 0.0 | 2.0 | 0.00 | 0.00 | 0.00 | 88 | 1015.8 |
| 20260509020050 | 61 | 0 | 0.0 | 1.0 | 0.00 | 0.00 | 0.00 | 86 | 1015.6 |
| 20260509014553 | 61 | 0 | 0.0 | 3.0 | 0.00 | 0.00 | 0.00 | 85 | 1015.6 |
| 20260509013055 | 62 | 0 | 0.0 | 3.0 | 0.00 | 0.00 | 0.00 | 84 | 1015.5 |
| 20260509011604 | 62 | 0 | 0.0 | 2.0 | 0.00 | 0.00 | 0.00 | 84 | 1015.4 |
| 20260509010100 | 62 | 0 | 0.0 | 1.0 | 0.00 | 0.00 | 0.00 | 84 | 1015.3 |
| 20260509004600 | 63 | 0 | 0.0 | 1.0 | 0.00 | 0.00 | 0.00 | 83 | 1015.1 |
| 20260509003053 | 63 | 0 | 0.0 | 2.0 | 0.00 | 0.00 | 0.00 | 83 | 1015.0 |
| 20260509001552 | 63 | 0 | 0.0 | 2.0 | 0.00 | 0.00 | 0.00 | 81 | 1015.3 |
| 20260509000053 | 63 | 267 | 0.0 | 3.0 | 0.00 | 0.00 | 0.00 | 82 | 1015.2 |
| 20260508234556 | 64 | 0 | 0.0 | 0.0 | 0.00 | 0.00 | 0.00 | 84 | 1015.1 |
| 20260508233050 | 65 | 0 | 0.0 | 0.0 | 0.00 | 0.00 | 0.00 | 83 | 1015.1 |
| 20260508231557 | 66 | 0 | 0.0 | 0.0 | 0.00 | 0.00 | 0.00 | 80 | 1014.9 |
| 20260508230051 | 66 | 0 | 0.0 | 0.0 | 0.00 | 0.00 | 0.00 | 77 | 1014.8 |
| 20260508224609 | 68 | 0 | 0.0 | 2.0 | 0.00 | 0.00 | 0.00 | 74 | 1014.9 |
| 20260508223051 | 68 | 0 | 0.0 | 3.0 | 0.00 | 0.00 | 0.00 | 72 | 1015.1 |
| 20260508221609 | 69 | 0 | 0.0 | 2.0 | 0.00 | 0.00 | 0.00 | 68 | 1014.9 |
| 20260508220052 | 70 | 0 | 0.0 | 3.0 | 0.00 | 0.00 | 0.00 | 72 | 1015.1 |
| 20260508214552 | 70 | 0 | 0.0 | 3.0 | 0.00 | 0.00 | 0.00 | 65 | 1015.1 |
| 20260508213053 | 70 | 156 | 1.0 | 4.0 | 0.00 | 0.00 | 0.00 | 63 | 1015.1 |
| 20260508211553 | 70 | 0 | 0.0 | 2.0 | 0.00 | 0.00 | 0.00 | 65 | 1015.0 |
| 20260508210053 | 70 | 0 | 0.0 | 2.0 | 0.00 | 0.00 | 0.00 | 65 | 1015.0 |
| 20260508204552 | 70 | 0 | 0.0 | 1.0 | 0.00 | 0.00 | 0.00 | 66 | 1015.3 |
| 20260508203054 | 70 | 0 | 0.0 | 2.0 | 0.00 | 0.00 | 0.00 | 67 | 1015.4 |
| 20260508201553 | 71 | 0 | 1.0 | 3.0 | 0.00 | 0.00 | 0.00 | 60 | 1015.1 |
| 20260508194547 | 73 | 0 | 0.0 | 3.0 | 0.00 | 0.00 | 0.00 | 56 | 1016.0 |
| 20260508193102 | 73 | 140 | 1.0 | 3.0 | 0.00 | 0.00 | 0.00 | 54 | 1016.0 |
| 20260508191551 | 72 | 193 | 1.0 | 4.0 | 0.00 | 0.00 | 0.00 | 56 | 1016.3 |
| 20260508190057 | 72 | 210 | 1.0 | 4.0 | 0.00 | 0.00 | 0.00 | 56 | 1016.6 |
| 20260508184550 | 72 | 173 | 2.0 | 9.0 | 0.00 | 0.00 | 0.00 | 57 | 1016.6 |
| 20260508183103 | 72 | 163 | 2.0 | 7.0 | 0.00 | 0.00 | 0.00 | 56 | 1016.8 |
| 20260508181611 | 72 | 0 | 1.0 | 4.0 | 0.00 | 0.00 | 0.00 | 51 | 1016.8 |
| 20260508180058 | 73 | 0 | 1.0 | 7.0 | 0.00 | 0.00 | 0.00 | 56 | 1017.1 |
| 20260508174551 | 72 | 0 | 1.0 | 7.0 | 0.00 | 0.00 | 0.00 | 59 | 1017.3 |
| 20260508173102 | 72 | 0 | 2.0 | 6.0 | 0.00 | 0.00 | 0.00 | 58 | 1017.6 |
| 20260508171555 | 71 | 256 | 0.0 | 3.0 | 0.00 | 0.00 | 0.00 | 65 | 1017.4 |
| 20260508170051 | 71 | 0 | 1.0 | 6.0 | 0.00 | 0.00 | 0.00 | 62 | 1017.8 |
| 20260508164553 | 69 | 44 | 1.0 | 5.0 | 0.00 | 0.00 | 0.00 | 64 | 1018.1 |
| 20260508163057 | 69 | 0 | 1.0 | 7.0 | 0.00 | 0.00 | 0.00 | 65 | 1018.3 |
| 20260508161554 | 69 | 0 | 0.0 | 7.0 | 0.00 | 0.00 | 0.00 | 69 | 1018.6 |
| 20260508160100 | 69 | 150 | 1.0 | 7.0 | 0.00 | 0.00 | 0.00 | 64 | 1018.7 |
| 20260508154553 | 68 | 0 | 0.0 | 7.0 | 0.00 | 0.00 | 0.00 | 70 | 1018.8 |
| 20260508153051 | 67 | 127 | 1.0 | 5.0 | 0.00 | 0.00 | 0.00 | 72 | 1019.0 |
| 20260508151551 | 65 | 208 | 1.0 | 5.0 | 0.00 | 0.00 | 0.00 | 75 | 1019.0 |
| 20260508150107 | 63 | 135 | 0.0 | 6.0 | 0.00 | 0.00 | 0.00 | 78 | 1019.3 |
| 20260508144558 | 64 | 117 | 0.0 | 5.0 | 0.00 | 0.04 | 0.00 | 78 | 1019.1 |
| 20260508143053 | 62 | 51 | 0.0 | 3.0 | 0.00 | 0.04 | 0.00 | 81 | 1019.1 |
| 20260508141600 | 61 | 59 | 0.0 | 3.0 | 0.00 | 0.04 | 0.00 | 83 | 1019.1 |
| 20260508140058 | 59 | 175 | 0.0 | 2.0 | 0.00 | 0.04 | 0.00 | 88 | 1019.1 |
| 20260508134548 | 57 | 70 | 0.0 | 2.0 | 0.00 | 0.10 | 0.00 | 94 | 1019.4 |
| 20260508133048 | 55 | 0 | 0.0 | 3.0 | 0.00 | 0.10 | 0.00 | 99 | 1019.5 |
| 20260508131555 | 54 | 0 | 0.0 | 2.0 | 0.00 | 0.10 | 0.00 | 100 | 1019.3 |
| 20260508130048 | 53 | 77 | 0.0 | 1.0 | 0.00 | 0.10 | 0.00 | 100 | 1019.2 |
| 20260508124550 | 52 | 0 | 0.0 | 0.0 | 0.00 | 0.40 | 0.00 | 100 | 1019.1 |
| 20260508123052 | 50 | 0 | 0.0 | 1.0 | 0.00 | 0.40 | 0.00 | 100 | 1019.2 |
| 20260508121552 | 49 | 0 | 0.0 | 0.0 | 0.00 | 0.40 | 0.00 | 100 | 1018.8 |
| 20260508120053 | 48 | 0 | 0.0 | 0.0 | 0.00 | 0.40 | 0.00 | 100 | 1018.2 |
| 20260508114601 | 47 | 0 | 0.0 | 1.0 | 0.00 | 0.96 | 0.00 | 100 | 1018.0 |
| 20260508113125 | 46 | 0 | 0.0 | 0.0 | 0.00 | 0.96 | 0.00 | 100 | 1017.9 |
| 20260508111549 | 46 | 0 | 0.0 | 0.0 | 0.00 | 0.96 | 0.00 | 99 | 1017.7 |
| 20260508110051 | 46 | 0 | 0.0 | 0.0 | 0.00 | 0.96 | 0.00 | 99 | 1017.6 |
| 20260508104555 | 46 | 0 | 0.0 | 1.0 | 0.00 | 1.43 | 0.00 | 99 | 1017.3 |
| 20260508103102 | 46 | 0 | 0.0 | 0.0 | 0.00 | 1.43 | 0.00 | 99 | 1016.7 |
| 20260508101551 | 46 | 0 | 0.0 | 1.0 | 0.00 | 1.43 | 0.00 | 99 | 1016.5 |
| 20260508100055 | 46 | 0 | 0.0 | 0.0 | 0.00 | 1.43 | 0.00 | 99 | 1016.5 |
| 20260508094552 | 47 | 0 | 0.0 | 0.0 | 0.00 | 1.48 | 0.00 | 99 | 1016.4 |
| 20260508093055 | 47 | 0 | 0.0 | 0.0 | 0.00 | 1.48 | 0.00 | 99 | 1016.4 |
| 20260508091552 | 47 | 0 | 0.0 | 0.0 | 0.00 | 1.48 | 0.00 | 99 | 1016.0 |
| 20260508090059 | 47 | 0 | 0.0 | 0.0 | 0.00 | 1.48 | 0.00 | 98 | 1016.1 |
| 20260508084552 | 48 | 0 | 0.0 | 0.0 | 0.00 | 1.51 | 0.00 | 99 | 1016.1 |
| 20260508083052 | 48 | 0 | 0.0 | 1.0 | 0.00 | 1.51 | 0.00 | 99 | 1016.0 |
| 20260508081601 | 48 | 0 | 0.0 | 0.0 | 0.00 | 1.51 | 0.00 | 99 | 1015.8 |
| 20260508080052 | 48 | 0 | 0.0 | 1.0 | 0.00 | 1.51 | 0.00 | 99 | 1015.9 |
| 20260508074556 | 48 | 0 | 0.0 | 0.0 | 0.00 | 1.51 | 0.00 | 98 | 1015.8 |
| 20260508073107 | 49 | 0 | 0.0 | 0.0 | 0.00 | 1.51 | 0.00 | 98 | 1015.9 |
| 20260508071552 | 49 | 0 | 0.0 | 0.0 | 0.00 | 1.51 | 0.00 | 98 | 1015.9 |
| 20260508064604 | 49 | 0 | 0.0 | 1.0 | 0.00 | 1.58 | 0.00 | 98 | 1015.9 |